This is the latest recevied weather packets stored in our database for station/object N7CW. If no packets are shown the sender has not sent any weather packets the latest 10 day(s).
| Time | Temp. | Humidity | Pressure | Rain* | Wind** | Luminosity | Snow |
|---|---|---|---|---|---|---|---|
| 1777647541 | 15° C | 28% | 1016.1 hPa | 0 mm | - | 302 W/m² | - |
| 1777647238 | 13.89° C | 28% | 1016.2 hPa | 0 mm | - | 285 W/m² | - |
| 1777646935 | 13.89° C | 28% | 1016 hPa | 0 mm | - | 268 W/m² | - |
| 1777646631 | 13.89° C | 28% | 1016 hPa | 0 mm | - | 250 W/m² | - |
| 1777646327 | 13.89° C | 28% | 1016 hPa | 0 mm | - | 234 W/m² | - |
| 1777646024 | 12.78° C | 28% | 1015.9 hPa | 0 mm | - | 219 W/m² | - |
| 1777645721 | 12.22° C | 29% | 1016 hPa | 0 mm | - | 200 W/m² | - |
| 1777645417 | 12.78° C | 31% | 1015.8 hPa | 0 mm | - | 184 W/m² | - |
| 1777645113 | 12.78° C | 33% | 1016.1 hPa | 0 mm | - | 168 W/m² | - |
| 1777644810 | 11.67° C | 31% | 1015.8 hPa | 0 mm | - | 155 W/m² | - |
| 1777644508 | 11.11° C | 33% | 1015.9 hPa | 0 mm | - | 138 W/m² | - |
| 1777644204 | 11.67° C | 31% | 1015.8 hPa | 0 mm | - | 122 W/m² | - |
| 1777643900 | 10° C | 31% | 1015.7 hPa | 0 mm | - | 107 W/m² | - |
| 1777643598 | 8.89° C | 37% | 1015.3 hPa | 0 mm | - | 94 W/m² | - |
| 1777643295 | 9.44° C | 37% | 1015.3 hPa | 0 mm | - | 81 W/m² | - |
| 1777642991 | 8.33° C | 36% | 1015.3 hPa | 0 mm | - | 70 W/m² | - |
| 1777642682 | 7.78° C | 35% | 1015.4 hPa | 0 mm | - | 59 W/m² | - |
| 1777642379 | 7.22° C | 37% | 1015.4 hPa | 0 mm | - | 49 W/m² | - |
| 1777642076 | 7.22° C | 38% | 1015.2 hPa | 0 mm | - | 39 W/m² | - |
| 1777641772 | 6.11° C | 37% | 1015.1 hPa | 0 mm | - | 31 W/m² | - |
| 1777641471 | 5.56° C | 39% | 1015.1 hPa | 0 mm | - | 27 W/m² | - |
| 1777641167 | 5.56° C | 38% | 1014.8 hPa | 0 mm | - | 24 W/m² | - |
| 1777640863 | 6.11° C | 39% | 1015.1 hPa | 0 mm | - | 20 W/m² | - |
| 1777640561 | 6.11° C | 37% | 1014.9 hPa | 0 mm | - | 17 W/m² | - |
| 1777640257 | 5.56° C | 38% | 1014.6 hPa | 0 mm | - | 13 W/m² | - |
* Rain latest hour (hover to see other rain measurements)
** Current wind speed in m/s (hover to see current wind gust speed)